SL-14 R/B

Satellite information

Favourite Embed

Satellite Type and Status

ROCKET BODYIN ORBIT

Key statistics

Satellite SL-14 R/B at a glance.

Uptime

15874

Days in orbit

Revolutions

≈ 13.8

Per day

Orbit

LEO

Low Earth Orbit

Inclination

82.5

Latest

Satellite identification and parameters

Extended collection of information and parameters for SL-14 R/B.

Object identification

Identified? True

Debris? False

Object name: SL-14 R/B

International designator: 1982-025B

Object number (NORAD): 13114

Object ID (CCSDS): 13114

Country: COMMONWEALTH OF INDEPENDENT STATES (CIS)

Current information (Y/N): Y

RCS size: LARGE

Orbital parameters

Period: 103.988 minutes

Inclination: 82.5434 deg

SMA: 7325.134 km

Apoapsis: 957.503 km

Periapsis: 936.495 km

RAAN: 331.1889 deg

Eccentricy: 0.00143396

Argument of periapsis: 353.6956 deg

Mean anomaly: 115.9081 deg

Mean motion: 13.84775714 rev/day

Mean motion (dot): 0.00000051 rev/day2

B* drag term: 0.00003239698 1/REarth

Two-line elements (TLE)

Creation date: Sept. 8, 2025, 6:18 p.m.

Reference frame: TEME

Reference center: EARTH

Epoch: Sept. 8, 2025, 2:28 p.m. UTC

TLE line 0: 0 SL-14 R/B

TLE line 1: 1 13114U 82025B 25251.60314736 .00000051 00000-0 32397-4 0 9996

TLE line 2: 2 13114 82.5434 331.1889 0014340 353.6956 115.9081 13.84775714196064

Live tracking on map

Real-time ground track for satellite SL-14 R/B.

In-orbit conjunctions

A list of the most updated potential collisions computed for object SL-14 R/B.

Target Orbit TCA Probability of collision Miss distance Type
DELTA 1 DEB SSO 2025-04-13 15:48:32 0.0009133312 176.0 (m) DEBRIS
SL-8 R/B LEO 2024-07-12 13:54:40 0.0001212646 78.0 (m) ROCKET BODY

Associated space launch

Second generation soviet meteorological satellite

SL-14 R/B was lifted into orbit during the mission ‘Tsiklon-3 | Meteor-2 8’, on board a Tsiklon-3 space rocket.

The launch took place on March 25, 1982, 9:50 a.m. from 32/1.

For more information about the launch, click the button.

Launch to space Tsiklon-3 | Meteor-2 8
Tsiklon-3 | Meteor-2 8

Agency: N/A

Status: Launch Successful

Launch date: March 25, 1982, 9:50 a.m. UTC

Rocket: Tsiklon-3

Launch pad: 32/1

Location: Plesetsk Cosmodrome, Russian Federation

...

Latest news about this satellite

There are no fresh news available about this satellite. Check back as we update our databases every day.


Newsletter sign-up

Weekly statistics, charts and insights to help you stay on top of the space industry.